GORIZONT 7 [-]

Last updated on Jan. 22, 2020, 4:37 a.m. UTC

1 14160U 83066A   20021.22851425 -.00000157  00000-0  00000-0 0  9993
2 14160  13.6319 331.8687 0013615 309.0489 294.9396  0.98348987131746
UTC
Height (km)
Latitude
Longitude
Inclination
Orbital Period
UTC large
Height (km)
Speed (km/s)
/
Latitude / Longitude
Inclination (degrees)
Orbital Period (minutes)
Azimuth
Elevation
Range (km)
Doppler Factor
iOS Compass Heading
iOS Angle

Next 30 passes for location: Hong Kong

Rise time Rise Azimuth (degrees) Set time Set Azimuth (degrees) Duration Max altitude (degrees)

No matching passes for this satellites